| time (UTC) | temp F | wind direction | speed MPH | gust MPH | rain 1hr in | rain 24hr in | rain mn in | humidity % | barometer mb |
| 20260510061404 | 74 | 104 | 5.0 | 9.0 | 0.00 | 0.00 | 0.00 | 61 | 1007.7 |
| 20260510060905 | 74 | 110 | 3.0 | 8.0 | 0.00 | 0.00 | 0.00 | 61 | 1007.8 |
| 20260510060405 | 74 | 108 | 3.0 | 7.0 | 0.00 | 0.00 | 0.00 | 61 | 1007.8 |
| 20260510055905 | 74 | 92 | 3.0 | 8.0 | 0.00 | 0.00 | 0.00 | 61 | 1007.8 |
| 20260510055405 | 74 | 121 | 3.0 | 9.0 | 0.00 | 0.00 | 0.00 | 61 | 1007.8 |
| 20260510054905 | 74 | 127 | 4.0 | 7.0 | 0.00 | 0.00 | 0.00 | 61 | 1007.5 |
| 20260510054405 | 74 | 95 | 5.0 | 8.0 | 0.00 | 0.00 | 0.00 | 61 | 1007.4 |
| 20260510053905 | 74 | 84 | 3.0 | 9.0 | 0.00 | 0.00 | 0.00 | 61 | 1007.6 |
| 20260510053405 | 74 | 111 | 3.0 | 8.0 | 0.00 | 0.00 | 0.00 | 61 | 1007.7 |
| 20260510052905 | 74 | 94 | 2.0 | 6.0 | 0.00 | 0.00 | 0.00 | 61 | 1007.8 |
| 20260510052405 | 74 | 101 | 3.0 | 8.0 | 0.00 | 0.00 | 0.00 | 61 | 1007.8 |
| 20260510051905 | 75 | 95 | 3.0 | 8.0 | 0.00 | 0.00 | 0.00 | 61 | 1007.6 |
| 20260510051405 | 75 | 110 | 4.0 | 9.0 | 0.00 | 0.00 | 0.00 | 61 | 1007.5 |
| 20260510050904 | 75 | 113 | 4.0 | 9.0 | 0.00 | 0.00 | 0.00 | 61 | 1007.4 |
| 20260510050405 | 75 | 101 | 5.0 | 12.0 | 0.00 | 0.00 | 0.00 | 61 | 1007.4 |
| 20260510045904 | 75 | 87 | 5.0 | 10.0 | 0.00 | 0.00 | 0.00 | 61 | 1007.3 |
| 20260510044904 | 75 | 96 | 6.0 | 10.0 | 0.00 | 0.00 | 0.00 | 61 | 1007.0 |
| 20260510044405 | 75 | 103 | 5.0 | 12.0 | 0.00 | 0.00 | 0.00 | 60 | 1007.0 |
| 20260510043905 | 75 | 92 | 5.0 | 13.0 | 0.00 | 0.00 | 0.00 | 60 | 1007.0 |
| 20260510043405 | 75 | 102 | 5.0 | 9.0 | 0.00 | 0.00 | 0.00 | 60 | 1007.2 |
| 20260510042905 | 75 | 86 | 2.0 | 5.0 | 0.00 | 0.00 | 0.00 | 59 | 1007.2 |
| 20260510042405 | 75 | 84 | 3.0 | 6.0 | 0.00 | 0.00 | 0.00 | 59 | 1007.3 |
| 20260510041904 | 75 | 76 | 3.0 | 8.0 | 0.00 | 0.00 | 0.00 | 59 | 1007.4 |
| 20260510041405 | 75 | 88 | 3.0 | 7.0 | 0.00 | 0.00 | 0.00 | 59 | 1007.3 |
| 20260510040904 | 75 | 84 | 2.0 | 7.0 | 0.00 | 0.00 | 0.00 | 58 | 1007.3 |
| 20260510040404 | 75 | 88 | 3.0 | 8.0 | 0.00 | 0.00 | 0.00 | 58 | 1007.2 |
| 20260510035905 | 75 | 100 | 2.0 | 6.0 | 0.00 | 0.00 | 0.00 | 58 | 1007.3 |
| 20260510035405 | 75 | 91 | 4.0 | 10.0 | 0.00 | 0.00 | 0.00 | 57 | 1007.3 |
| 20260510034905 | 75 | 85 | 3.0 | 7.0 | 0.00 | 0.00 | 0.00 | 56 | 1007.2 |
| 20260510034405 | 75 | 90 | 2.0 | 5.0 | 0.00 | 0.00 | 0.00 | 56 | 1007.2 |
| 20260510033904 | 75 | 78 | 2.0 | 7.0 | 0.00 | 0.00 | 0.00 | 56 | 1007.1 |
| 20260510033405 | 75 | 88 | 2.0 | 3.0 | 0.00 | 0.00 | 0.00 | 56 | 1007.2 |
| 20260510032905 | 75 | 86 | 3.0 | 5.0 | 0.00 | 0.00 | 0.00 | 56 | 1007.3 |
| 20260510032405 | 76 | 89 | 3.0 | 6.0 | 0.00 | 0.00 | 0.00 | 55 | 1007.3 |
| 20260510031907 | 76 | 92 | 3.0 | 6.0 | 0.00 | 0.00 | 0.00 | 55 | 1007.3 |
| 20260510031404 | 76 | 92 | 2.0 | 3.0 | 0.00 | 0.00 | 0.00 | 55 | 1007.3 |
| 20260510030905 | 76 | 91 | 2.0 | 3.0 | 0.00 | 0.00 | 0.00 | 55 | 1007.3 |
| 20260510030404 | 76 | 66 | 2.0 | 3.0 | 0.00 | 0.00 | 0.00 | 55 | 1007.3 |
| 20260510025904 | 76 | 70 | 3.0 | 5.0 | 0.00 | 0.00 | 0.00 | 55 | 1007.3 |
| 20260510025405 | 76 | 70 | 3.0 | 6.0 | 0.00 | 0.00 | 0.00 | 54 | 1007.3 |
| 20260510024904 | 76 | 72 | 3.0 | 7.0 | 0.00 | 0.00 | 0.00 | 54 | 1007.2 |
| 20260510024405 | 76 | 84 | 4.0 | 7.0 | 0.00 | 0.00 | 0.00 | 54 | 1007.2 |
| 20260510023905 | 76 | 64 | 3.0 | 6.0 | 0.00 | 0.00 | 0.00 | 54 | 1007.2 |
| 20260510023405 | 77 | 64 | 3.0 | 7.0 | 0.00 | 0.00 | 0.00 | 53 | 1007.2 |
| 20260510022905 | 77 | 76 | 3.0 | 5.0 | 0.00 | 0.00 | 0.00 | 53 | 1007.1 |
| 20260510022404 | 77 | 76 | 3.0 | 5.0 | 0.00 | 0.00 | 0.00 | 53 | 1007.0 |
| 20260510021905 | 77 | 74 | 2.0 | 3.0 | 0.00 | 0.00 | 0.00 | 53 | 1007.0 |
| 20260510020904 | 78 | 71 | 2.0 | 3.0 | 0.00 | 0.00 | 0.00 | 53 | 1006.9 |
| 20260510020405 | 78 | 71 | 3.0 | 3.0 | 0.00 | 0.00 | 0.00 | 53 | 1006.8 |
| 20260510015905 | 78 | 71 | 2.0 | 6.0 | 0.00 | 0.00 | 0.00 | 52 | 1006.8 |
| 20260510015405 | 79 | 96 | 3.0 | 6.0 | 0.00 | 0.00 | 0.00 | 52 | 1006.8 |
| 20260510014905 | 79 | 85 | 3.0 | 6.0 | 0.00 | 0.00 | 0.00 | 52 | 1006.7 |
| 20260510014405 | 79 | 79 | 3.0 | 5.0 | 0.00 | 0.00 | 0.00 | 51 | 1006.5 |
| 20260510013905 | 79 | 79 | 3.0 | 5.0 | 0.00 | 0.00 | 0.00 | 51 | 1006.4 |
| 20260510013404 | 80 | 83 | 2.0 | 5.0 | 0.00 | 0.00 | 0.00 | 51 | 1006.5 |
| 20260510012904 | 80 | 74 | 3.0 | 3.0 | 0.00 | 0.00 | 0.00 | 51 | 1006.4 |
| 20260510012404 | 80 | 71 | 2.0 | 3.0 | 0.00 | 0.00 | 0.00 | 51 | 1006.3 |
| 20260510011905 | 81 | 66 | 2.0 | 3.0 | 0.00 | 0.00 | 0.00 | 50 | 1006.2 |
| 20260510011405 | 81 | 75 | 2.0 | 5.0 | 0.00 | 0.00 | 0.00 | 50 | 1006.2 |
| 20260510010905 | 82 | 72 | 2.0 | 6.0 | 0.00 | 0.00 | 0.00 | 50 | 1006.2 |
| 20260510010404 | 82 | 79 | 3.0 | 5.0 | 0.00 | 0.00 | 0.00 | 50 | 1006.2 |
| 20260510005404 | 83 | 74 | 3.0 | 5.0 | 0.00 | 0.00 | 0.00 | 48 | 1006.1 |
| 20260510004905 | 83 | 83 | 3.0 | 5.0 | 0.00 | 0.00 | 0.00 | 47 | 1006.1 |
| 20260510004405 | 83 | 68 | 3.0 | 3.0 | 0.00 | 0.00 | 0.00 | 47 | 1006.1 |
| 20260510003905 | 83 | 67 | 3.0 | 5.0 | 0.00 | 0.00 | 0.00 | 46 | 1006.0 |
| 20260510003406 | 84 | 74 | 2.0 | 3.0 | 0.00 | 0.00 | 0.00 | 46 | 1006.0 |
| 20260510002905 | 84 | 66 | 3.0 | 5.0 | 0.00 | 0.00 | 0.00 | 45 | 1006.1 |
| 20260510002404 | 84 | 68 | 3.0 | 6.0 | 0.00 | 0.00 | 0.00 | 45 | 1006.1 |
| 20260510001405 | 85 | 60 | 3.0 | 6.0 | 0.00 | 0.00 | 0.00 | 44 | 1006.0 |
| 20260510000905 | 85 | 63 | 3.0 | 5.0 | 0.00 | 0.00 | 0.00 | 43 | 1005.9 |
| 20260510000405 | 85 | 64 | 3.0 | 5.0 | 0.00 | 0.00 | 0.00 | 42 | 1005.9 |
| 20260509235905 | 85 | 65 | 1.0 | 3.0 | 0.00 | 0.00 | 0.00 | 39 | 1005.9 |
| 20260509235404 | 86 | 65 | 3.0 | 5.0 | 0.00 | 0.00 | 0.00 | 40 | 1005.9 |
| 20260509234905 | 86 | 51 | 3.0 | 6.0 | 0.00 | 0.00 | 0.00 | 38 | 1005.9 |
| 20260509234404 | 86 | 52 | 3.0 | 6.0 | 0.00 | 0.00 | 0.00 | 39 | 1005.9 |
| 20260509233904 | 86 | 56 | 1.0 | 3.0 | 0.00 | 0.00 | 0.00 | 38 | 1005.9 |
| 20260509231905 | 87 | 73 | 3.0 | 8.0 | 0.00 | 0.00 | 0.00 | 40 | 1005.9 |
| 20260509231405 | 87 | 81 | 3.0 | 8.0 | 0.00 | 0.00 | 0.00 | 40 | 1005.9 |
| 20260509230904 | 87 | 105 | 2.0 | 3.0 | 0.00 | 0.00 | 0.00 | 37 | 1005.9 |
| 20260509230405 | 87 | 106 | 2.0 | 3.0 | 0.00 | 0.00 | 0.00 | 40 | 1005.9 |
| 20260509225904 | 88 | 109 | 3.0 | 7.0 | 0.00 | 0.00 | 0.00 | 39 | 1005.9 |
| 20260509225404 | 88 | 46 | 2.0 | 6.0 | 0.00 | 0.00 | 0.00 | 38 | 1006.0 |
| 20260509224905 | 88 | 91 | 0.0 | 6.0 | 0.00 | 0.00 | 0.00 | 39 | 1005.9 |
| 20260509224404 | 88 | 91 | 3.0 | 7.0 | 0.00 | 0.00 | 0.00 | 40 | 1005.8 |
| 20260509223904 | 87 | 101 | 2.0 | 5.0 | 0.00 | 0.00 | 0.00 | 40 | 1005.8 |
| 20260509223404 | 87 | 49 | 2.0 | 3.0 | 0.00 | 0.00 | 0.00 | 38 | 1005.8 |
| 20260509222904 | 87 | 44 | 4.0 | 6.0 | 0.00 | 0.00 | 0.00 | 40 | 1005.8 |
| 20260509222405 | 87 | 84 | 2.0 | 3.0 | 0.00 | 0.00 | 0.00 | 39 | 1005.7 |
| 20260509221404 | 87 | 85 | 2.0 | 3.0 | 0.00 | 0.00 | 0.00 | 40 | 1005.8 |
| 20260509220904 | 87 | 70 | 1.0 | 6.0 | 0.00 | 0.00 | 0.00 | 41 | 1005.9 |
| 20260509220404 | 87 | 40 | 3.0 | 8.0 | 0.00 | 0.00 | 0.00 | 42 | 1005.9 |
| 20260509215904 | 87 | 41 | 2.0 | 6.0 | 0.00 | 0.00 | 0.00 | 42 | 1005.9 |
| 20260509215405 | 87 | 67 | 3.0 | 5.0 | 0.00 | 0.00 | 0.00 | 43 | 1006.0 |
| 20260509214904 | 87 | 81 | 2.0 | 7.0 | 0.00 | 0.00 | 0.00 | 43 | 1006.0 |
| 20260509214404 | 87 | 66 | 2.0 | 3.0 | 0.00 | 0.00 | 0.00 | 42 | 1005.9 |
| 20260509213904 | 87 | 60 | 2.0 | 3.0 | 0.00 | 0.00 | 0.00 | 43 | 1006.0 |
| 20260509213405 | 87 | 62 | 3.0 | 9.0 | 0.00 | 0.00 | 0.00 | 44 | 1006.1 |
| 20260509212404 | 87 | 339 | 3.0 | 7.0 | 0.00 | 0.00 | 0.00 | 42 | 1006.2 |
| 20260509211905 | 87 | 111 | 2.0 | 6.0 | 0.00 | 0.00 | 0.00 | 43 | 1006.2 |
| 20260509211405 | 87 | 174 | 3.0 | 6.0 | 0.00 | 0.00 | 0.00 | 44 | 1006.2 |
| 20260509210905 | 87 | 65 | 2.0 | 3.0 | 0.00 | 0.00 | 0.00 | 43 | 1006.4 |
| 20260509205404 | 87 | 27 | 3.0 | 8.0 | 0.00 | 0.00 | 0.00 | 45 | 1006.6 |
| 20260509204904 | 87 | 73 | 1.0 | 3.0 | 0.00 | 0.00 | 0.00 | 44 | 1006.7 |
| 20260509204405 | 87 | 76 | 2.0 | 8.0 | 0.00 | 0.00 | 0.00 | 47 | 1006.9 |
| 20260509203905 | 87 | 299 | 5.0 | 9.0 | 0.00 | 0.00 | 0.00 | 46 | 1007.0 |
| 20260509203405 | 87 | 276 | 3.0 | 8.0 | 0.00 | 0.00 | 0.00 | 46 | 1007.0 |
| 20260509202405 | 87 | 322 | 3.0 | 9.0 | 0.00 | 0.00 | 0.00 | 46 | 1007.1 |
| 20260509201905 | 87 | 19 | 5.0 | 12.0 | 0.00 | 0.00 | 0.00 | 46 | 1007.2 |
| 20260509201404 | 87 | 40 | 5.0 | 8.0 | 0.00 | 0.00 | 0.00 | 46 | 1007.1 |
| 20260509200904 | 87 | 341 | 3.0 | 8.0 | 0.00 | 0.00 | 0.00 | 46 | 1007.1 |
| 20260509200404 | 86 | 260 | 5.0 | 8.0 | 0.00 | 0.00 | 0.00 | 48 | 1007.2 |
| 20260509195904 | 86 | 259 | 1.0 | 6.0 | 0.00 | 0.00 | 0.00 | 47 | 1007.3 |
| 20260509195404 | 86 | 338 | 4.0 | 10.0 | 0.00 | 0.00 | 0.00 | 48 | 1007.4 |
| 20260509194905 | 86 | 246 | 2.0 | 8.0 | 0.00 | 0.00 | 0.00 | 47 | 1007.3 |
| 20260509194405 | 85 | 283 | 5.0 | 8.0 | 0.00 | 0.00 | 0.00 | 48 | 1007.5 |
| 20260509193904 | 85 | 273 | 6.0 | 9.0 | 0.00 | 0.00 | 0.00 | 49 | 1007.5 |
| 20260509193405 | 85 | 334 | 6.0 | 10.0 | 0.00 | 0.00 | 0.00 | 49 | 1007.6 |
| 20260509192405 | 85 | 269 | 7.0 | 9.0 | 0.00 | 0.00 | 0.00 | 48 | 1007.6 |
| 20260509191405 | 84 | 336 | 4.0 | 9.0 | 0.00 | 0.00 | 0.00 | 49 | 1007.7 |
| 20260509190904 | 84 | 336 | 4.0 | 9.0 | 0.00 | 0.00 | 0.00 | 50 | 1007.8 |
| 20260509185905 | 84 | 312 | 5.0 | 9.0 | 0.00 | 0.00 | 0.00 | 49 | 1007.8 |
| 20260509185405 | 83 | 3 | 4.0 | 9.0 | 0.00 | 0.00 | 0.00 | 50 | 1007.8 |
| 20260509184905 | 83 | 326 | 4.0 | 10.0 | 0.00 | 0.00 | 0.00 | 48 | 1007.8 |
| 20260509184405 | 84 | 301 | 6.0 | 12.0 | 0.00 | 0.00 | 0.00 | 49 | 1007.8 |
| 20260509183904 | 84 | 272 | 3.0 | 8.0 | 0.00 | 0.00 | 0.00 | 49 | 1007.8 |
| 20260509183404 | 83 | 292 | 3.0 | 10.0 | 0.00 | 0.00 | 0.00 | 51 | 1007.8 |
| 20260509182905 | 83 | 323 | 5.0 | 10.0 | 0.00 | 0.00 | 0.00 | 51 | 1008.0 |
| 20260509181905 | 83 | 356 | 4.0 | 9.0 | 0.00 | 0.00 | 0.00 | 51 | 1008.0 |
| 20260509181405 | 83 | 272 | 6.0 | 12.0 | 0.00 | 0.00 | 0.00 | 51 | 1008.0 |
| 20260509180904 | 83 | 309 | 7.0 | 12.0 | 0.00 | 0.00 | 0.00 | 52 | 1007.9 |
| 20260509180404 | 82 | 254 | 5.0 | 10.0 | 0.00 | 0.00 | 0.00 | 51 | 1008.1 |
| 20260509175904 | 82 | 288 | 8.0 | 10.0 | 0.00 | 0.00 | 0.00 | 51 | 1008.2 |
| 20260509175405 | 82 | 313 | 1.0 | 9.0 | 0.00 | 0.00 | 0.00 | 52 | 1008.2 |
| 20260509173905 | 81 | 316 | 3.0 | 7.0 | 0.00 | 0.00 | 0.00 | 52 | 1008.4 |
| 20260509173404 | 81 | 218 | 2.0 | 7.0 | 0.00 | 0.00 | 0.00 | 51 | 1008.4 |
| 20260509172904 | 81 | 313 | 6.0 | 12.0 | 0.00 | 0.00 | 0.00 | 52 | 1008.5 |
| 20260509172404 | 81 | 350 | 5.0 | 9.0 | 0.00 | 0.00 | 0.00 | 52 | 1008.5 |
| 20260509171405 | 80 | 354 | 3.0 | 6.0 | 0.00 | 0.00 | 0.00 | 54 | 1008.5 |
| 20260509170904 | 80 | 332 | 5.0 | 9.0 | 0.00 | 0.00 | 0.00 | 52 | 1008.6 |
| 20260509170404 | 80 | 337 | 6.0 | 9.0 | 0.00 | 0.00 | 0.00 | 53 | 1008.6 |
| 20260509165404 | 80 | 294 | 4.0 | 10.0 | 0.00 | 0.00 | 0.00 | 54 | 1008.6 |
| 20260509164405 | 79 | 354 | 3.0 | 7.0 | 0.00 | 0.00 | 0.00 | 54 | 1008.6 |
| 20260509163904 | 79 | 306 | 5.0 | 10.0 | 0.00 | 0.00 | 0.00 | 54 | 1008.7 |
| 20260509163404 | 79 | 340 | 1.0 | 3.0 | 0.00 | 0.00 | 0.00 | 56 | 1008.7 |
| 20260509162905 | 79 | 293 | 4.0 | 9.0 | 0.00 | 0.00 | 0.00 | 54 | 1008.7 |
| 20260509162405 | 79 | 305 | 5.0 | 12.0 | 0.00 | 0.00 | 0.00 | 55 | 1008.6 |
| 20260509161904 | 79 | 273 | 5.0 | 8.0 | 0.00 | 0.00 | 0.00 | 54 | 1008.6 |
| 20260509161405 | 79 | 280 | 5.0 | 8.0 | 0.00 | 0.00 | 0.00 | 55 | 1008.7 |
| 20260509160404 | 78 | 303 | 5.0 | 8.0 | 0.00 | 0.00 | 0.00 | 57 | 1008.7 |
| 20260509155904 | 78 | 282 | 4.0 | 8.0 | 0.00 | 0.00 | 0.00 | 56 | 1008.7 |
| 20260509155405 | 77 | 328 | 6.0 | 8.0 | 0.00 | 0.00 | 0.00 | 56 | 1008.6 |
| 20260509154905 | 77 | 293 | 5.0 | 10.0 | 0.00 | 0.00 | 0.00 | 56 | 1008.7 |
| 20260509154404 | 77 | 317 | 4.0 | 9.0 | 0.00 | 0.00 | 0.00 | 57 | 1008.6 |
| 20260509153404 | 77 | 333 | 6.0 | 12.0 | 0.00 | 0.00 | 0.00 | 57 | 1008.4 |
| 20260509152904 | 76 | 346 | 4.0 | 10.0 | 0.00 | 0.00 | 0.00 | 58 | 1008.4 |
| 20260509152404 | 76 | 290 | 8.0 | 12.0 | 0.00 | 0.00 | 0.00 | 59 | 1008.4 |
| 20260509151905 | 76 | 274 | 6.0 | 13.0 | 0.00 | 0.00 | 0.00 | 59 | 1008.4 |
| 20260509151405 | 76 | 320 | 6.0 | 12.0 | 0.00 | 0.00 | 0.00 | 58 | 1008.4 |
| 20260509150905 | 76 | 327 | 7.0 | 12.0 | 0.00 | 0.00 | 0.00 | 58 | 1008.4 |
| 20260509150405 | 76 | 309 | 7.0 | 12.0 | 0.00 | 0.00 | 0.00 | 59 | 1008.3 |
| 20260509145904 | 75 | 303 | 9.0 | 13.0 | 0.00 | 0.00 | 0.00 | 59 | 1008.3 |
| 20260509145404 | 75 | 304 | 7.0 | 13.0 | 0.00 | 0.00 | 0.00 | 59 | 1008.3 |
| 20260509144404 | 75 | 307 | 7.0 | 9.0 | 0.00 | 0.00 | 0.00 | 59 | 1008.3 |
| 20260509143904 | 75 | 290 | 8.0 | 12.0 | 0.00 | 0.00 | 0.00 | 59 | 1008.3 |
| 20260509143404 | 76 | 272 | 6.0 | 12.0 | 0.00 | 0.00 | 0.00 | 59 | 1008.4 |
| 20260509142904 | 75 | 265 | 8.0 | 10.0 | 0.00 | 0.00 | 0.00 | 59 | 1008.3 |
| 20260509142404 | 75 | 273 | 7.0 | 10.0 | 0.00 | 0.00 | 0.00 | 60 | 1008.4 |
| 20260509141904 | 75 | 262 | 4.0 | 9.0 | 0.00 | 0.00 | 0.00 | 59 | 1008.4 |
| 20260509140904 | 75 | 262 | 5.0 | 8.0 | 0.00 | 0.00 | 0.00 | 60 | 1008.4 |
| 20260509140404 | 75 | 221 | 5.0 | 8.0 | 0.00 | 0.00 | 0.00 | 60 | 1008.5 |
| 20260509134904 | 75 | 227 | 4.0 | 8.0 | 0.00 | 0.00 | 0.00 | 60 | 1008.4 |
| 20260509134405 | 74 | 241 | 6.0 | 8.0 | 0.00 | 0.00 | 0.00 | 60 | 1008.3 |
| 20260509133904 | 74 | 253 | 5.0 | 7.0 | 0.00 | 0.00 | 0.00 | 62 | 1008.1 |
| 20260509132904 | 74 | 215 | 3.0 | 6.0 | 0.00 | 0.00 | 0.00 | 66 | 1008.1 |
| 20260509132404 | 73 | 214 | 2.0 | 5.0 | 0.00 | 0.00 | 0.00 | 68 | 1008.0 |
| 20260509131904 | 73 | 220 | 3.0 | 6.0 | 0.00 | 0.00 | 0.00 | 69 | 1008.0 |
| 20260509131404 | 73 | 223 | 3.0 | 5.0 | 0.00 | 0.00 | 0.00 | 70 | 1008.1 |
| 20260509130905 | 72 | 203 | 4.0 | 7.0 | 0.00 | 0.00 | 0.00 | 71 | 1008.0 |
| 20260509130404 | 72 | 209 | 5.0 | 7.0 | 0.00 | 0.00 | 0.00 | 72 | 1008.0 |
| 20260509125905 | 72 | 205 | 5.0 | 10.0 | 0.00 | 0.00 | 0.00 | 73 | 1008.0 |
| 20260509124904 | 71 | 180 | 2.0 | 5.0 | 0.00 | 0.00 | 0.00 | 72 | 1008.0 |
| 20260509124404 | 70 | 130 | 2.0 | 3.0 | 0.00 | 0.00 | 0.00 | 71 | 1008.1 |
| 20260509123904 | 70 | 121 | 1.0 | 3.0 | 0.00 | 0.00 | 0.00 | 70 | 1008.0 |
| 20260509123405 | 70 | 120 | 1.0 | 2.0 | 0.00 | 0.00 | 0.00 | 69 | 1008.0 |
| 20260509122905 | 70 | 120 | 1.0 | 3.0 | 0.00 | 0.00 | 0.00 | 69 | 1008.1 |
| 20260509121404 | 70 | 119 | 2.0 | 3.0 | 0.00 | 0.00 | 0.00 | 69 | 1008.0 |
| 20260509120904 | 70 | 119 | 1.0 | 3.0 | 0.00 | 0.00 | 0.00 | 69 | 1008.0 |
| 20260509115904 | 70 | 124 | 2.0 | 3.0 | 0.00 | 0.00 | 0.00 | 68 | 1007.8 |
| 20260509114905 | 70 | 132 | 2.0 | 3.0 | 0.00 | 0.00 | 0.00 | 68 | 1007.8 |
| 20260509114405 | 70 | 133 | 2.0 | 3.0 | 0.00 | 0.00 | 0.00 | 69 | 1007.8 |
| 20260509113904 | 70 | 140 | 2.0 | 3.0 | 0.00 | 0.00 | 0.00 | 69 | 1007.8 |
| 20260509113404 | 70 | 144 | 2.0 | 3.0 | 0.00 | 0.00 | 0.00 | 69 | 1007.7 |
| 20260509112904 | 70 | 144 | 3.0 | 6.0 | 0.00 | 0.00 | 0.00 | 69 | 1007.6 |
| 20260509112404 | 70 | 144 | 3.0 | 5.0 | 0.00 | 0.00 | 0.00 | 69 | 1007.4 |
| 20260509110904 | 70 | 212 | 1.0 | 3.0 | 0.00 | 0.00 | 0.00 | 69 | 1007.4 |
| 20260509110404 | 70 | 212 | 0.0 | 2.0 | 0.00 | 0.00 | 0.00 | 69 | 1007.6 |
| 20260509105904 | 70 | 212 | 1.0 | 3.0 | 0.00 | 0.00 | 0.00 | 69 | 1007.5 |
| 20260509105404 | 70 | 227 | 2.0 | 3.0 | 0.00 | 0.00 | 0.00 | 69 | 1007.4 |
| 20260509104905 | 70 | 248 | 1.0 | 3.0 | 0.00 | 0.00 | 0.00 | 69 | 1007.4 |
| 20260509104404 | 70 | 248 | 1.0 | 2.0 | 0.00 | 0.00 | 0.00 | 69 | 1007.4 |
| 20260509103904 | 70 | 248 | 0.0 | 2.0 | 0.00 | 0.00 | 0.00 | 69 | 1007.4 |
| 20260509103405 | 70 | 248 | 2.0 | 3.0 | 0.00 | 0.00 | 0.00 | 69 | 1007.4 |
| 20260509102404 | 70 | 187 | 2.0 | 3.0 | 0.00 | 0.00 | 0.00 | 69 | 1007.0 |
| 20260509101405 | 70 | 186 | 0.0 | 2.0 | 0.00 | 0.00 | 0.00 | 69 | 1006.8 |
| 20260509100904 | 70 | 186 | 2.0 | 7.0 | 0.00 | 0.00 | 0.00 | 69 | 1006.8 |
| 20260509100404 | 70 | 191 | 2.0 | 3.0 | 0.00 | 0.00 | 0.00 | 68 | 1006.7 |
| 20260509095905 | 70 | 197 | 2.0 | 5.0 | 0.00 | 0.00 | 0.00 | 68 | 1006.6 |
| 20260509095404 | 70 | 227 | 3.0 | 5.0 | 0.00 | 0.00 | 0.00 | 68 | 1006.6 |
| 20260509094905 | 70 | 120 | 5.0 | 13.0 | 0.00 | 0.00 | 0.00 | 68 | 1005.8 |
| 20260509094404 | 70 | 137 | 5.0 | 13.0 | 0.00 | 0.00 | 0.00 | 68 | 1005.5 |
| 20260509093904 | 70 | 118 | 7.0 | 14.0 | 0.00 | 0.00 | 0.00 | 68 | 1005.5 |
| 20260509093404 | 70 | 120 | 7.0 | 12.0 | 0.00 | 0.00 | 0.00 | 68 | 1005.6 |
| 20260509092904 | 70 | 123 | 6.0 | 12.0 | 0.00 | 0.00 | 0.00 | 67 | 1005.6 |
| 20260509092404 | 70 | 114 | 5.0 | 10.0 | 0.00 | 0.00 | 0.00 | 67 | 1005.3 |
| 20260509091404 | 70 | 116 | 7.0 | 13.0 | 0.00 | 0.00 | 0.00 | 67 | 1005.0 |
| 20260509090904 | 70 | 127 | 8.0 | 13.0 | 0.00 | 0.00 | 0.00 | 66 | 1005.2 |
| 20260509090404 | 70 | 122 | 6.0 | 13.0 | 0.00 | 0.00 | 0.00 | 66 | 1005.6 |
| 20260509084904 | 70 | 132 | 6.0 | 12.0 | 0.00 | 0.00 | 0.00 | 66 | 1006.1 |
| 20260509084404 | 70 | 137 | 5.0 | 12.0 | 0.00 | 0.00 | 0.00 | 66 | 1006.5 |
| 20260509083905 | 70 | 138 | 5.0 | 9.0 | 0.00 | 0.00 | 0.00 | 65 | 1006.9 |
| 20260509083405 | 70 | 120 | 4.0 | 7.0 | 0.00 | 0.00 | 0.00 | 65 | 1007.0 |
| 20260509082904 | 70 | 119 | 3.0 | 6.0 | 0.00 | 0.00 | 0.00 | 65 | 1007.2 |
| 20260509081904 | 70 | 144 | 4.0 | 8.0 | 0.00 | 0.00 | 0.00 | 65 | 1007.8 |
| 20260509081404 | 70 | 122 | 2.0 | 3.0 | 0.00 | 0.00 | 0.00 | 65 | 1007.9 |
| 20260509075905 | 70 | 159 | 3.0 | 5.0 | 0.00 | 0.00 | 0.00 | 64 | 1008.4 |
| 20260509074905 | 70 | 143 | 0.0 | 2.0 | 0.00 | 0.00 | 0.00 | 64 | 1008.5 |
| 20260509074405 | 69 | 143 | 1.0 | 2.0 | 0.00 | 0.00 | 0.00 | 64 | 1008.6 |
| 20260509073904 | 69 | 143 | 1.0 | 3.0 | 0.00 | 0.00 | 0.00 | 64 | 1008.7 |
| 20260509073404 | 69 | 140 | 1.0 | 3.0 | 0.00 | 0.00 | 0.00 | 64 | 1008.8 |
| 20260509072904 | 69 | 140 | 1.0 | 3.0 | 0.00 | 0.00 | 0.00 | 63 | 1009.0 |
| 20260509072405 | 69 | 140 | 1.0 | 2.0 | 0.00 | 0.00 | 0.00 | 63 | 1009.0 |
| 20260509071904 | 69 | 140 | 0.0 | 2.0 | 0.00 | 0.00 | 0.00 | 63 | 1008.9 |
| 20260509071404 | 70 | 140 | 1.0 | 2.0 | 0.00 | 0.00 | 0.00 | 63 | 1008.8 |
| 20260509070904 | 70 | 140 | 0.0 | 3.0 | 0.00 | 0.00 | 0.00 | 62 | 1008.5 |
| 20260509070404 | 70 | 140 | 2.0 | 3.0 | 0.00 | 0.00 | 0.00 | 62 | 1008.1 |
| 20260509064904 | 70 | 150 | 2.0 | 3.0 | 0.00 | 0.00 | 0.00 | 62 | 1008.1 |
| 20260509064404 | 70 | 147 | 1.0 | 3.0 | 0.00 | 0.00 | 0.00 | 61 | 1008.2 |
| 20260509063404 | 70 | 148 | 2.0 | 5.0 | 0.00 | 0.00 | 0.00 | 61 | 1008.0 |
| 20260509062904 | 71 | 161 | 4.0 | 5.0 | 0.00 | 0.00 | 0.00 | 61 | 1008.1 |
| 20260509062404 | 71 | 162 | 0.0 | 0.0 | 0.00 | 0.00 | 0.00 | 61 | 1008.5 |